Lancaster, OH

12:30 AM EDT on March 25, 2017 (GMT -0400)
Fairfield County

Weather History for KLHQ - December, 2011

Change the Weather History Date:

Tuesday, December 6, 2011

  Actual Average Record
Temperature  
Mean Temperature 40 °F -  
Max Temperature 42 °F 42 °F 72 °F (1998)
Min Temperature 39 °F 26 °F -5 °F (2007)
Degree Days  
Heating Degree Days 24    
Moisture  
Dew Point 38 °F    
Average Humidity 93    
Maximum Humidity 100    
Minimum Humidity 87    
Precipitation  
Precipitation 0.03 in - - ()
Sea Level Pressure  
Sea Level Pressure 30.06 in    
Wind  
Wind Speed 9 mph (North)    
Max Wind Speed 15 mph    
Max Gust Speed 23 mph    
Visibility 7 miles    
Events Rain    
Averages and records for this station are not official NWS values.
T = Trace of Precipitation, MM = Missing Value Source: NWS Daily Summary

Daily Weather History Graph

Daily Weather History Graph

Search for Another Location

Airport or City:

Trip Planner

Search our weather history database for the weather conditions in past years. The results will help you decide how hot, cold, wet, or windy it might be!

Date:

Astronomy

Dec. 06, 2011 Rise Set
Actual Time 7:37 AM EST 5:05 PM EST
Civil Twilight 7:07 AM EST 5:36 PM EST
Nautical Twilight 6:33 AM EST 6:09 PM EST
Astronomical Twilight 6:00 AM EST 6:42 PM EST
Moon 2:32 PM EST (12/6) 3:54 AM EST (12/6)
Length of Visible Light 10h 29m
Length of Day
9h 28m
Waxing Gibbous, 86% of the Moon is Illuminated
Dec 6
Waxing Gibbous
Dec 10
Full
Dec 17
Last Quarter
Dec 24
New
Jan 1
First Quarter

Hourly Weather History & Observations

Time (EST) Temp. Windchill Dew Point Humidity Pressure Visibility Wind Dir Wind Speed Gust Speed Precip Events Conditions
12:07 AM 42.8 °F 36.6 °F 41.0 °F 93% 30.05 in 5.0 mi North 11.5 mph - N/A   Overcast
12:41 AM 42.8 °F 35.4 °F 39.2 °F 87% 30.05 in 9.0 mi North 15.0 mph 23.0 mph 0.00 in Rain Light Rain
12:53 AM 42.1 °F 34.9 °F 39.0 °F 89% 30.06 in 10.0 mi North 13.8 mph - 0.00 in Rain Light Rain
1:53 AM 41.0 °F 35.8 °F 39.0 °F 93% 30.06 in 6.0 mi North 8.1 mph - 0.01 in   Overcast
2:53 AM 41.0 °F 35.8 °F 39.0 °F 93% 30.08 in 9.0 mi North 8.1 mph - 0.01 in   Overcast
3:42 AM 39.2 °F 33.6 °F 37.4 °F 93% 30.06 in 10.0 mi North 8.1 mph - 0.00 in   Overcast
3:53 AM 39.9 °F 35.1 °F 37.9 °F 93% 30.08 in 10.0 mi NNE 6.9 mph - 0.00 in Rain Light Rain
4:53 AM 39.9 °F 35.1 °F 37.9 °F 93% 30.08 in 10.0 mi North 6.9 mph - 0.00 in   Overcast
5:53 AM 39.9 °F 34.5 °F 37.9 °F 93% 30.08 in 10.0 mi North 8.1 mph - N/A   Overcast
6:53 AM 39.9 °F 35.8 °F 37.9 °F 93% 30.08 in 10.0 mi North 5.8 mph - N/A   Overcast
7:53 AM 39.9 °F 34.5 °F 37.9 °F 93% 30.09 in 10.0 mi North 8.1 mph - N/A   Overcast
8:53 AM 41.0 °F 35.8 °F 37.9 °F 89% 30.09 in 10.0 mi NNE 8.1 mph - N/A   Overcast
9:53 AM 41.0 °F 34.3 °F 37.9 °F 89% 30.10 in 10.0 mi NNE 11.5 mph - N/A   Overcast
10:11 AM 41.0 °F 35.8 °F 37.4 °F 87% 30.10 in 10.0 mi North 8.1 mph - N/A   Overcast
10:53 AM 41.0 °F 35.2 °F 37.9 °F 89% 30.12 in 10.0 mi North 9.2 mph - N/A   Overcast
11:53 AM 42.1 °F 36.6 °F 39.0 °F 89% 30.08 in 8.0 mi North 9.2 mph - N/A   Overcast
12:53 PM 41.0 °F 34.3 °F 37.9 °F 89% 30.06 in 10.0 mi North 11.5 mph - N/A   Overcast
1:15 PM 41.0 °F 34.7 °F 37.4 °F 87% 30.05 in 9.0 mi NNE 10.4 mph - N/A   Overcast
1:32 PM 41.0 °F 35.8 °F 37.4 °F 87% 30.05 in 2.0 mi North 8.1 mph - N/A   Overcast
1:51 PM 39.2 °F 33.6 °F 37.4 °F 93% 30.04 in 2.5 mi North 8.1 mph - 0.01 in   Overcast
1:53 PM 39.9 °F 34.5 °F 37.9 °F 93% 30.06 in 2.5 mi North 8.1 mph - 0.01 in   Overcast
2:00 PM 39.2 °F 33.0 °F 37.4 °F 93% 30.04 in 2.0 mi North 9.2 mph - N/A   Overcast
2:09 PM 39.2 °F 32.5 °F 37.4 °F 93% 30.04 in 2.5 mi North 10.4 mph - N/A   Overcast
2:18 PM 41.0 °F 35.8 °F 39.2 °F 93% 30.04 in 2.0 mi North 8.1 mph - N/A   Overcast
2:23 PM 41.0 °F 36.4 °F 39.2 °F 93% 30.04 in 2.5 mi North 6.9 mph - N/A   Overcast
2:27 PM 41.0 °F 36.4 °F 39.2 °F 93% 30.04 in 2.0 mi North 6.9 mph - N/A   Overcast
2:53 PM 41.0 °F 35.8 °F 39.0 °F 93% 30.05 in 2.5 mi North 8.1 mph - N/A   Overcast
3:02 PM 39.2 °F 33.6 °F 39.2 °F 100% 30.04 in 2.0 mi North 8.1 mph - N/A   Overcast
3:19 PM 41.0 °F 37.1 °F 39.2 °F 93% 30.03 in 3.0 mi NNE 5.8 mph - N/A   Overcast
3:32 PM 41.0 °F 38.0 °F 39.2 °F 93% 30.03 in 8.0 mi North 4.6 mph - N/A   Overcast
3:53 PM 41.0 °F 36.4 °F 39.0 °F 93% 30.05 in 8.0 mi North 6.9 mph - N/A   Overcast
4:07 PM 39.2 °F 34.2 °F 37.4 °F 93% 30.04 in 4.0 mi North 6.9 mph - N/A   Overcast
4:29 PM 39.2 °F 35.0 °F 39.2 °F 100% 30.05 in 3.0 mi North 5.8 mph - N/A   Overcast
4:33 PM 39.2 °F 33.6 °F 39.2 °F 100% 30.05 in 2.0 mi North 8.1 mph - N/A   Overcast
4:40 PM 39.2 °F 35.0 °F 39.2 °F 100% 30.05 in 3.0 mi North 5.8 mph - N/A   Overcast
4:48 PM 39.2 °F 34.2 °F 39.2 °F 100% 30.05 in 4.0 mi North 6.9 mph - N/A   Overcast
4:53 PM 39.9 °F 36.7 °F 39.0 °F 97% 30.06 in 3.0 mi North 4.6 mph - N/A   Overcast
5:16 PM 39.2 °F 35.0 °F 39.2 °F 100% 30.05 in 4.0 mi North 5.8 mph - N/A   Overcast
5:53 PM 39.9 °F 35.1 °F 39.0 °F 97% 30.06 in 5.0 mi North 6.9 mph - N/A   Overcast
6:02 PM 39.2 °F 35.0 °F 39.2 °F 100% 30.06 in 6.0 mi NNW 5.8 mph - N/A   Overcast
6:15 PM 39.2 °F 34.2 °F 39.2 °F 100% 30.06 in 4.0 mi North 6.9 mph - N/A   Overcast
6:25 PM 39.2 °F 34.2 °F 37.4 °F 93% 30.06 in 4.0 mi Variable 6.9 mph - N/A   Overcast
6:53 PM 39.9 °F 35.1 °F 37.9 °F 93% 30.09 in 8.0 mi NNW 6.9 mph - N/A   Overcast
7:50 PM 39.2 °F 33.0 °F 37.4 °F 93% 30.06 in 8.0 mi NE 9.2 mph - N/A   Overcast
7:53 PM 39.0 °F 34.0 °F 37.0 °F 93% 30.08 in 9.0 mi NE 6.9 mph - N/A   Overcast
8:31 PM 39.2 °F 35.0 °F 37.4 °F 93% 30.03 in 10.0 mi NE 5.8 mph - N/A   Overcast
8:43 PM 39.2 °F 35.0 °F 37.4 °F 93% 30.03 in 10.0 mi NNE 5.8 mph - N/A   Overcast
8:53 PM 39.0 °F 35.7 °F 37.0 °F 93% 30.04 in 10.0 mi NNE 4.6 mph - N/A   Overcast
9:53 PM 39.0 °F 35.7 °F 37.0 °F 93% 30.04 in 10.0 mi North 4.6 mph - N/A   Overcast
10:53 PM 39.0 °F 35.7 °F 37.0 °F 93% 30.08 in 10.0 mi NW 4.6 mph - N/A   Overcast
11:53 PM 39.0 °F - 37.0 °F 93% 30.08 in 10.0 mi Calm Calm - N/A   Overcast